McGrath, AK

5:29 PM AKDT on April 19, 2018 (GMT -0800)
McGrath

Weather History for PAMC - March, 2014

Change the Weather History Date:

Wednesday, March 26, 2014

  Actual Average Record
Temperature  
Mean Temperature 22 °F 16 °F  
Max Temperature 39 °F 29 °F 47 °F (2015)
Min Temperature 5 °F 3 °F -30 °F (2013)
Degree Days  
Heating Degree Days 43 49  
Month to date heating degree days 1378 1418  
Since 1 July heating degree days 10180 11650  
Cooling Degree Days 0 0  
Month to date cooling degree days 0 0  
Year to date cooling degree days 0 0  
Moisture  
Dew Point 4 °F    
Average Humidity 52    
Maximum Humidity 76    
Minimum Humidity 18    
Precipitation  
Precipitation 0.00 in 0.02 in 0.54 in (1991)
Month to date precipitation 0.04 0.70  
Year to date precipitation 1.73 2.73  
Snow  
Snow 0.00 in 0.30 in 6.60 in (1991)
Month to date snowfall 0.4 10.0  
Since 1 July snowfall 46.4 90.0  
Snow Depth 13.00 in    
Sea Level Pressure  
Sea Level Pressure 29.83 in    
Wind  
Wind Speed 1 mph (NNW)    
Max Wind Speed 7 mph    
Max Gust Speed 9 mph    
Visibility 10 miles    
Events      
T = Trace of Precipitation, MM = Missing Value Source: NWS Daily Summary

Daily Weather History Graph

Daily Weather History Graph

Search for Another Location

Airport or City:

Astronomy

Mar. 26, 2014 Rise Set
Actual Time 8:02 AM AKDT 8:55 PM AKDT
Civil Twilight 7:15 AM AKDT 9:42 PM AKDT
Nautical Twilight 6:18 AM AKDT 10:40 PM AKDT
Astronomical Twilight 5:10 AM AKDT 11:49 PM AKDT
Moon 6:36 AM AKDT (3/26) 3:34 PM AKDT (3/26)
Length of Visible Light 14h 26m
Length of Day
12h 53m
Waning Crescent, 20% of the Moon is Illuminated
Mar 26
Waning Crescent
Mar 30
New
Apr 7
First Quarter
Apr 14
Full
Apr 21
Last Quarter

Hourly Weather History & Observations

Time (AKDT) Temp. Windchill Dew Point Humidity Pressure Visibility Wind Dir Wind Speed Gust Speed Precip Events Conditions
12:53 AM 14.0 °F - 3.0 °F 62% 29.81 in 10.0 mi Calm Calm - N/A   Clear
1:53 AM 8.1 °F - 1.9 °F 76% 29.80 in 10.0 mi Calm Calm - N/A   Clear
2:53 AM 8.1 °F - 1.9 °F 76% 29.79 in 10.0 mi Calm Calm - N/A   Clear
3:53 AM 7.0 °F - -0.0 °F 73% 29.80 in 10.0 mi Calm Calm - N/A   Clear
4:53 AM 5.0 °F - -0.9 °F 76% 29.80 in 10.0 mi Calm Calm - N/A   Clear
5:53 AM 6.1 °F - -0.9 °F 73% 29.80 in 10.0 mi Calm Calm - N/A   Clear
6:53 AM 8.1 °F - 1.0 °F 73% 29.80 in 10.0 mi Calm Calm - N/A   Clear
7:53 AM 7.0 °F - -0.0 °F 73% 29.81 in 10.0 mi Calm Calm - N/A   Scattered Clouds
8:53 AM 6.1 °F - -0.0 °F 76% 29.81 in 10.0 mi Calm Calm - N/A   Mostly Cloudy
9:53 AM 9.0 °F - 1.9 °F 73% 29.83 in 10.0 mi Calm Calm - N/A   Mostly Cloudy
10:53 AM 16.0 °F - 3.0 °F 57% 29.83 in 10.0 mi Calm Calm - N/A   Overcast
11:53 AM 21.0 °F - 5.0 °F 50% 29.83 in 10.0 mi Calm Calm - N/A   Mostly Cloudy
12:53 PM 27.0 °F 21.6 °F 8.1 °F 45% 29.83 in 10.0 mi SE 4.6 mph - N/A   Scattered Clouds
1:53 PM 32.0 °F - 7.0 °F 35% 29.83 in 10.0 mi Calm Calm - N/A   Scattered Clouds
2:53 PM 34.0 °F - 6.1 °F 31% 29.83 in 10.0 mi Calm Calm - N/A   Scattered Clouds
3:53 PM 36.0 °F - 8.1 °F 31% 29.83 in 10.0 mi Calm Calm - N/A   Clear
4:53 PM 37.9 °F - 5.0 °F 25% 29.83 in 10.0 mi Calm Calm - N/A   Clear
5:53 PM 37.9 °F - 8.1 °F 29% 29.83 in 10.0 mi Calm Calm - N/A   Clear
6:53 PM 39.0 °F 36.8 °F 7.0 °F 27% 29.82 in 10.0 mi North 3.5 mph - N/A   Clear
7:53 PM 37.0 °F 34.5 °F 7.0 °F 29% 29.83 in 10.0 mi North 3.5 mph - N/A   Clear
8:53 PM 32.0 °F 26.4 °F 7.0 °F 35% 29.84 in 10.0 mi North 5.8 mph - N/A   Clear
9:53 PM 28.9 °F 25.2 °F 9.0 °F 43% 29.86 in 10.0 mi NW 3.5 mph - N/A   Clear
10:53 PM 26.1 °F 21.9 °F 9.0 °F 49% 29.87 in 10.0 mi North 3.5 mph - N/A   Clear
11:53 PM 18.0 °F 12.7 °F 8.1 °F 65% 29.88 in 10.0 mi West 3.5 mph - N/A   Clear